2021,03,01,00,00,00,246.3,,,,,,,,,,,,,,
2021,03,01,00,01,00,243.9,,,,,,,,,,,,,,
2021,03,01,00,02,00,331.2,,,,,,,,,,,,,,
2021,03,01,00,03,00,314.1,,,,,,,,,,,,,,
2021,03,01,00,04,00,399.2,,,,,,,,,,,,,,
2021,03,01,00,05,00,414.9,,,,,,,,,,,,,,
2021,03,01,00,06,00,414.5,,,,,,,,,,,,,,
2021,03,01,00,07,00,416.8,,,,,,,,,,,,,,
2021,03,01,00,08,00,402.5,,,,,,,,,,,,,,
2021,03,01,00,09,00,418.9,,,,,,,,,,,,,,
2021,03,01,00,10,00,493.5,,,,,,,,,,,,,,
2021,03,01,00,11,00,543.1,,,,,,,,,,,,,,
2021,03,01,00,12,00,634.4,,,,,,,,,,,,,,
2021,03,01,00,13,00,647.2,,,,,,,,,,,,,,
2021,03,01,00,14,00,577.6,,,,,,,,,,,,,,
2021,03,01,00,15,00,486.6,,,,,,,,,,,,,,
2021,03,01,00,16,00,453.1,,,,,,,,,,,,,,
2021,03,01,00,17,00,404.7,,,,,,,,,,,,,,
2021,03,01,00,18,00,421.0,,,,,,,,,,,,,,
2021,03,01,00,19,00,361.7,,,,,,,,,,,,,,
2021,03,01,00,20,00,321.6,,,,,,,,,,,,,,
2021,03,01,00,21,00,314.6,,,,,,,,,,,,,,
2021,03,01,00,22,00,296.2,,,,,,,,,,,,,,
2021,03,01,00,23,00,306.6,,,,,,,,,,,,,,
2021,03,01,00,24,00,352.2,,,,,,,,,,,,,,
2021,03,01,00,25,00,452.6,,,,,,,,,,,,,,
2021,03,01,00,26,00,517.9,,,,,,,,,,,,,,
2021,03,01,00,27,00,548.0,,,,,,,,,,,,,,
2021,03,01,00,28,00,474.3,,,,,,,,,,,,,,
2021,03,01,00,29,00,439.5,,,,,,,,,,,,,,
2021,03,01,00,30,00,438.8,,,,,,,,,,,,,,
2021,03,01,00,31,00,440.2,,,,,,,,,,,,,,
2021,03,01,00,32,00,429.3,,,,,,,,,,,,,,
2021,03,01,00,33,00,458.8,,,,,,,,,,,,,,
2021,03,01,00,34,00,566.7,,,,,,,,,,,,,,
2021,03,01,00,35,00,549.4,,,,,,,,,,,,,,
2021,03,01,00,36,00,443.5,,,,,,,,,,,,,,
2021,03,01,00,37,00,405.0,,,,,,,,,,,,,,
2021,03,01,00,38,00,373.0,,,,,,,,,,,,,,
2021,03,01,00,39,00,389.0,,,,,,,,,,,,,,
2021,03,01,00,40,00,384.5,,,,,,,,,,,,,,
2021,03,01,00,41,00,390.0,,,,,,,,,,,,,,
2021,03,01,00,42,00,385.8,,,,,,,,,,,,,,
2021,03,01,00,43,00,342.5,,,,,,,,,,,,,,
2021,03,01,00,44,00,377.8,,,,,,,,,,,,,,
2021,03,01,00,45,00,403.6,,,,,,,,,,,,,,
2021,03,01,00,46,00,414.9,,,,,,,,,,,,,,
2021,03,01,00,47,00,396.2,,,,,,,,,,,,,,
2021,03,01,00,48,00,421.7,,,,,,,,,,,,,,
2021,03,01,00,49,00,494.4,,,,,,,,,,,,,,
2021,03,01,00,50,00,549.5,,,,,,,,,,,,,,
2021,03,01,00,51,00,504.4,,,,,,,,,,,,,,
2021,03,01,00,52,00,508.8,,,,,,,,,,,,,,
2021,03,01,00,53,00,532.2,,,,,,,,,,,,,,
2021,03,01,00,54,00,439.4,,,,,,,,,,,,,,
2021,03,01,00,55,00,431.3,,,,,,,,,,,,,,
2021,03,01,00,56,00,645.2,,,,,,,,,,,,,,
2021,03,01,00,57,00,611.1,,,,,,,,,,,,,,
2021,03,01,00,58,00,582.8,,,,,,,,,,,,,,
2021,03,01,00,59,00,520.3,,,,,,,,,,,,,,
2021,03,01,01,00,00,479.0,,,,,,,,,,,,,,
2021,03,01,01,01,00,515.0,,,,,,,,,,,,,,
2021,03,01,01,02,00,522.8,,,,,,,,,,,,,,
2021,03,01,01,03,00,436.0,,,,,,,,,,,,,,
2021,03,01,01,04,00,412.6,,,,,,,,,,,,,,
2021,03,01,01,05,00,487.9,,,,,,,,,,,,,,
2021,03,01,01,06,00,483.2,,,,,,,,,,,,,,
2021,03,01,01,07,00,433.8,,,,,,,,,,,,,,
2021,03,01,01,08,00,530.5,,,,,,,,,,,,,,
2021,03,01,01,09,00,611.4,,,,,,,,,,,,,,
2021,03,01,01,10,00,595.5,,,,,,,,,,,,,,
2021,03,01,01,11,00,615.7,,,,,,,,,,,,,,
2021,03,01,01,12,00,717.0,,,,,,,,,,,,,,
2021,03,01,01,13,00,784.8,,,,,,,,,,,,,,
2021,03,01,01,14,00,830.9,,,,,,,,,,,,,,
2021,03,01,01,15,00,907.5,,,,,,,,,,,,,,
2021,03,01,01,16,00,938.5,,,,,,,,,,,,,,
2021,03,01,01,17,00,1060.4,,,,,,,,,,,,,,
2021,03,01,01,18,00,1087.3,,,,,,,,,,,,,,
2021,03,01,01,19,00,1146.5,,,,,,,,,,,,,,
2021,03,01,01,20,00,1289.7,,,,,,,,,,,,,,
2021,03,01,01,21,00,1066.2,,,,,,,,,,,,,,
2021,03,01,01,22,00,1036.0,,,,,,,,,,,,,,
2021,03,01,01,23,00,1061.4,,,,,,,,,,,,,,
2021,03,01,01,24,00,1121.4,,,,,,,,,,,,,,
2021,03,01,01,25,00,884.4,,,,,,,,,,,,,,
2021,03,01,01,26,00,889.7,,,,,,,,,,,,,,
2021,03,01,01,27,00,656.9,,,,,,,,,,,,,,
2021,03,01,01,28,00,619.8,,,,,,,,,,,,,,
2021,03,01,01,29,00,587.8,,,,,,,,,,,,,,
2021,03,01,01,30,00,547.9,,,,,,,,,,,,,,
2021,03,01,01,31,00,546.4,,,,,,,,,,,,,,
2021,03,01,01,32,00,520.9,,,,,,,,,,,,,,
2021,03,01,01,33,00,669.9,,,,,,,,,,,,,,
2021,03,01,01,34,00,774.7,,,,,,,,,,,,,,
2021,03,01,01,35,00,790.2,,,,,,,,,,,,,,
2021,03,01,01,36,00,834.0,,,,,,,,,,,,,,
2021,03,01,01,37,00,931.2,,,,,,,,,,,,,,
2021,03,01,01,38,00,938.4,,,,,,,,,,,,,,
2021,03,01,01,39,00,1361.5,,,,,,,,,,,,,,
2021,03,01,01,40,00,1254.0,,,,,,,,,,,,,,
2021,03,01,01,41,00,1089.4,,,,,,,,,,,,,,
2021,03,01,01,42,00,1087.3,,,,,,,,,,,,,,
2021,03,01,01,43,00,946.8,,,,,,,,,,,,,,
2021,03,01,01,44,00,1006.3,,,,,,,,,,,,,,
2021,03,01,01,45,00,969.5,,,,,,,,,,,,,,
2021,03,01,01,46,00,1026.4,,,,,,,,,,,,,,
2021,03,01,01,47,00,919.2,,,,,,,,,,,,,,
2021,03,01,01,48,00,1055.5,,,,,,,,,,,,,,
2021,03,01,01,49,00,1064.9,,,,,,,,,,,,,,
2021,03,01,01,50,00,1008.8,,,,,,,,,,,,,,
2021,03,01,01,51,00,963.3,,,,,,,,,,,,,,
2021,03,01,01,52,00,923.7,,,,,,,,,,,,,,
2021,03,01,01,53,00,1009.7,,,,,,,,,,,,,,
2021,03,01,01,54,00,837.7,,,,,,,,,,,,,,
2021,03,01,01,55,00,835.0,,,,,,,,,,,,,,
2021,03,01,01,56,00,839.2,,,,,,,,,,,,,,
2021,03,01,01,57,00,825.2,,,,,,,,,,,,,,
2021,03,01,01,58,00,852.2,,,,,,,,,,,,,,
2021,03,01,01,59,00,888.4,,,,,,,,,,,,,,
2021,03,01,02,00,00,796.4,,,,,,,,,,,,,,
2021,03,01,02,01,00,888.1,,,,,,,,,,,,,,
2021,03,01,02,02,00,827.8,,,,,,,,,,,,,,
2021,03,01,02,03,00,910.4,,,,,,,,,,,,,,
2021,03,01,02,04,00,1102.3,,,,,,,,,,,,,,
2021,03,01,02,05,00,919.1,,,,,,,,,,,,,,
2021,03,01,02,06,00,1078.5,,,,,,,,,,,,,,
2021,03,01,02,07,00,1561.5,,,,,,,,,,,,,,
2021,03,01,02,08,00,1194.3,,,,,,,,,,,,,,
2021,03,01,02,09,00,842.6,,,,,,,,,,,,,,
2021,03,01,02,10,00,1148.9,,,,,,,,,,,,,,
2021,03,01,02,11,00,846.6,,,,,,,,,,,,,,
2021,03,01,02,12,00,844.0,,,,,,,,,,,,,,
2021,03,01,02,13,00,1011.3,,,,,,,,,,,,,,
2021,03,01,02,14,00,853.7,,,,,,,,,,,,,,
2021,03,01,02,15,00,1046.9,,,,,,,,,,,,,,
2021,03,01,02,16,00,1135.3,,,,,,,,,,,,,,
2021,03,01,02,17,00,1072.7,,,,,,,,,,,,,,
2021,03,01,02,18,00,1085.9,,,,,,,,,,,,,,
2021,03,01,02,19,00,836.5,,,,,,,,,,,,,,
2021,03,01,02,20,00,772.5,,,,,,,,,,,,,,
2021,03,01,02,21,00,1092.6,,,,,,,,,,,,,,
2021,03,01,02,22,00,1151.3,,,,,,,,,,,,,,
2021,03,01,02,23,00,932.8,,,,,,,,,,,,,,
2021,03,01,02,24,00,987.8,,,,,,,,,,,,,,
2021,03,01,02,25,00,1178.2,,,,,,,,,,,,,,
2021,03,01,02,26,00,1238.8,,,,,,,,,,,,,,
2021,03,01,02,27,00,1529.7,,,,,,,,,,,,,,
2021,03,01,02,28,00,1886.3,,,,,,,,,,,,,,
2021,03,01,02,29,00,1727.9,,,,,,,,,,,,,,
2021,03,01,02,30,00,765.6,,,,,,,,,,,,,,
2021,03,01,02,31,00,865.0,,,,,,,,,,,,,,
2021,03,01,02,32,00,958.6,,,,,,,,,,,,,,
2021,03,01,02,33,00,877.6,,,,,,,,,,,,,,
2021,03,01,02,34,00,821.4,,,,,,,,,,,,,,
2021,03,01,02,35,00,950.5,,,,,,,,,,,,,,
2021,03,01,02,36,00,901.3,,,,,,,,,,,,,,
2021,03,01,02,37,00,688.3,,,,,,,,,,,,,,
2021,03,01,02,38,00,616.5,,,,,,,,,,,,,,
2021,03,01,02,39,00,543.1,,,,,,,,,,,,,,
2021,03,01,02,40,00,382.1,,,,,,,,,,,,,,
2021,03,01,02,41,00,197.8,,,,,,,,,,,,,,
2021,03,01,02,42,00,298.1,,,,,,,,,,,,,,
2021,03,01,02,43,00,345.7,,,,,,,,,,,,,,
2021,03,01,02,44,00,353.5,,,,,,,,,,,,,,
2021,03,01,02,45,00,448.2,,,,,,,,,,,,,,
2021,03,01,02,46,00,502.3,,,,,,,,,,,,,,
2021,03,01,02,47,00,311.6,,,,,,,,,,,,,,
2021,03,01,02,48,00,328.6,,,,,,,,,,,,,,
2021,03,01,02,49,00,570.8,,,,,,,,,,,,,,
2021,03,01,02,50,00,924.0,,,,,,,,,,,,,,
2021,03,01,02,51,00,798.7,,,,,,,,,,,,,,
2021,03,01,02,52,00,818.3,,,,,,,,,,,,,,
2021,03,01,02,53,00,857.0,,,,,,,,,,,,,,
2021,03,01,02,54,00,793.3,,,,,,,,,,,,,,
2021,03,01,02,55,00,576.5,,,,,,,,,,,,,,
2021,03,01,02,56,00,456.0,,,,,,,,,,,,,,
2021,03,01,02,57,00,621.3,,,,,,,,,,,,,,
2021,03,01,02,58,00,828.1,,,,,,,,,,,,,,
2021,03,01,02,59,00,586.9,,,,,,,,,,,,,,
2021,03,01,03,00,00,553.5,,,,,,,,,,,,,,
2021,03,01,03,01,00,509.3,,,,,,,,,,,,,,
2021,03,01,03,02,00,432.6,,,,,,,,,,,,,,
2021,03,01,03,03,00,689.6,,,,,,,,,,,,,,
2021,03,01,03,04,00,616.0,,,,,,,,,,,,,,
2021,03,01,03,05,00,530.1,,,,,,,,,,,,,,
2021,03,01,03,06,00,438.6,,,,,,,,,,,,,,
2021,03,01,03,07,00,412.1,,,,,,,,,,,,,,
2021,03,01,03,08,00,469.8,,,,,,,,,,,,,,
2021,03,01,03,09,00,537.0,,,,,,,,,,,,,,
2021,03,01,03,10,00,618.5,,,,,,,,,,,,,,
2021,03,01,03,11,00,643.8,,,,,,,,,,,,,,
2021,03,01,03,12,00,550.1,,,,,,,,,,,,,,
2021,03,01,03,13,00,446.1,,,,,,,,,,,,,,
2021,03,01,03,14,00,393.3,,,,,,,,,,,,,,
2021,03,01,03,15,00,375.3,,,,,,,,,,,,,,
2021,03,01,03,16,00,283.8,,,,,,,,,,,,,,
2021,03,01,03,17,00,496.8,,,,,,,,,,,,,,
2021,03,01,03,18,00,525.2,,,,,,,,,,,,,,
2021,03,01,03,19,00,462.2,,,,,,,,,,,,,,
2021,03,01,03,20,00,615.7,,,,,,,,,,,,,,
2021,03,01,03,21,00,488.2,,,,,,,,,,,,,,
2021,03,01,03,22,00,517.9,,,,,,,,,,,,,,
2021,03,01,03,23,00,820.5,,,,,,,,,,,,,,
2021,03,01,03,24,00,623.5,,,,,,,,,,,,,,
2021,03,01,03,25,00,542.5,,,,,,,,,,,,,,
2021,03,01,03,26,00,574.7,,,,,,,,,,,,,,
2021,03,01,03,27,00,475.5,,,,,,,,,,,,,,
2021,03,01,03,28,00,392.0,,,,,,,,,,,,,,
2021,03,01,03,29,00,360.0,,,,,,,,,,,,,,
2021,03,01,03,30,00,399.0,,,,,,,,,,,,,,
2021,03,01,03,31,00,376.8,,,,,,,,,,,,,,
2021,03,01,03,32,00,444.7,,,,,,,,,,,,,,
2021,03,01,03,33,00,503.1,,,,,,,,,,,,,,
2021,03,01,03,34,00,424.1,,,,,,,,,,,,,,
2021,03,01,03,35,00,457.0,,,,,,,,,,,,,,
2021,03,01,03,36,00,406.1,,,,,,,,,,,,,,
2021,03,01,03,37,00,405.4,,,,,,,,,,,,,,
2021,03,01,03,38,00,409.6,,,,,,,,,,,,,,
2021,03,01,03,39,00,445.8,,,,,,,,,,,,,,
2021,03,01,03,40,00,498.5,,,,,,,,,,,,,,
2021,03,01,03,41,00,559.9,,,,,,,,,,,,,,
2021,03,01,03,42,00,541.9,,,,,,,,,,,,,,
2021,03,01,03,43,00,580.9,,,,,,,,,,,,,,
2021,03,01,03,44,00,503.6,,,,,,,,,,,,,,
2021,03,01,03,45,00,475.5,,,,,,,,,,,,,,
2021,03,01,03,46,00,359.6,,,,,,,,,,,,,,
2021,03,01,03,47,00,304.8,,,,,,,,,,,,,,
2021,03,01,03,48,00,265.6,,,,,,,,,,,,,,
2021,03,01,03,49,00,438.6,,,,,,,,,,,,,,
2021,03,01,03,50,00,315.5,,,,,,,,,,,,,,
2021,03,01,03,51,00,304.4,,,,,,,,,,,,,,
2021,03,01,03,52,00,200.5,,,,,,,,,,,,,,
2021,03,01,03,53,00,230.1,,,,,,,,,,,,,,
2021,03,01,03,54,00,212.4,,,,,,,,,,,,,,
2021,03,01,03,55,00,140.5,,,,,,,,,,,,,,
2021,03,01,03,56,00,139.8,,,,,,,,,,,,,,
2021,03,01,03,57,00,229.4,,,,,,,,,,,,,,
2021,03,01,03,58,00,319.5,,,,,,,,,,,,,,
2021,03,01,03,59,00,51.8,,,,,,,,,,,,,,
2021,03,01,04,00,00,353.9,,,,,,,,,,,,,,
2021,03,01,04,01,00,598.6,,,,,,,,,,,,,,
2021,03,01,04,02,00,383.9,,,,,,,,,,,,,,
2021,03,01,04,03,00,505.5,,,,,,,,,,,,,,
2021,03,01,04,04,00,440.1,,,,,,,,,,,,,,
2021,03,01,04,05,00,408.0,,,,,,,,,,,,,,
2021,03,01,04,06,00,492.7,,,,,,,,,,,,,,
2021,03,01,04,07,00,459.5,,,,,,,,,,,,,,
2021,03,01,04,08,00,509.2,,,,,,,,,,,,,,
2021,03,01,04,09,00,402.1,,,,,,,,,,,,,,
2021,03,01,04,10,00,448.1,,,,,,,,,,,,,,
2021,03,01,04,11,00,237.5,,,,,,,,,,,,,,
2021,03,01,04,12,00,268.0,,,,,,,,,,,,,,
2021,03,01,04,13,00,233.5,,,,,,,,,,,,,,
2021,03,01,04,14,00,250.4,,,,,,,,,,,,,,
2021,03,01,04,15,00,186.5,,,,,,,,,,,,,,
2021,03,01,04,16,00,119.0,,,,,,,,,,,,,,
2021,03,01,04,17,00,126.0,,,,,,,,,,,,,,
2021,03,01,04,18,00,284.2,,,,,,,,,,,,,,
2021,03,01,04,19,00,628.7,,,,,,,,,,,,,,
2021,03,01,04,20,00,470.1,,,,,,,,,,,,,,
2021,03,01,04,21,00,296.1,,,,,,,,,,,,,,
2021,03,01,04,22,00,245.6,,,,,,,,,,,,,,
2021,03,01,04,23,00,182.2,,,,,,,,,,,,,,
2021,03,01,04,24,00,162.9,,,,,,,,,,,,,,
2021,03,01,04,25,00,79.6,,,,,,,,,,,,,,
2021,03,01,04,26,00,122.1,,,,,,,,,,,,,,
2021,03,01,04,27,00,93.1,,,,,,,,,,,,,,
2021,03,01,04,28,00,89.9,,,,,,,,,,,,,,
2021,03,01,04,29,00,93.7,,,,,,,,,,,,,,
2021,03,01,04,30,00,58.4,,,,,,,,,,,,,,
2021,03,01,04,31,00,75.5,,,,,,,,,,,,,,
2021,03,01,04,32,00,95.6,,,,,,,,,,,,,,
2021,03,01,04,33,00,112.1,,,,,,,,,,,,,,
2021,03,01,04,34,00,114.6,,,,,,,,,,,,,,
2021,03,01,04,35,00,126.7,,,,,,,,,,,,,,
2021,03,01,04,36,00,181.8,,,,,,,,,,,,,,
2021,03,01,04,37,00,195.6,,,,,,,,,,,,,,
2021,03,01,04,38,00,144.8,,,,,,,,,,,,,,
2021,03,01,04,39,00,117.6,,,,,,,,,,,,,,
2021,03,01,04,40,00,145.9,,,,,,,,,,,,,,
2021,03,01,04,41,00,174.8,,,,,,,,,,,,,,
2021,03,01,04,42,00,222.8,,,,,,,,,,,,,,
2021,03,01,04,43,00,178.0,,,,,,,,,,,,,,
2021,03,01,04,44,00,174.8,,,,,,,,,,,,,,
2021,03,01,04,45,00,206.5,,,,,,,,,,,,,,
2021,03,01,04,46,00,261.7,,,,,,,,,,,,,,
2021,03,01,04,47,00,344.0,,,,,,,,,,,,,,
2021,03,01,04,48,00,403.1,,,,,,,,,,,,,,
2021,03,01,04,49,00,332.7,,,,,,,,,,,,,,
2021,03,01,04,50,00,72.2,,,,,,,,,,,,,,
2021,03,01,04,51,00,233.6,,,,,,,,,,,,,,
2021,03,01,04,52,00,345.9,,,,,,,,,,,,,,
2021,03,01,04,53,00,381.3,,,,,,,,,,,,,,
2021,03,01,04,54,00,416.8,,,,,,,,,,,,,,
2021,03,01,04,55,00,358.7,,,,,,,,,,,,,,
2021,03,01,04,56,00,350.0,,,,,,,,,,,,,,
2021,03,01,04,57,00,301.9,,,,,,,,,,,,,,
2021,03,01,04,58,00,-3.7,,,,,,,,,,,,,,
2021,03,01,04,59,00,87.4,,,,,,,,,,,,,,
2021,03,01,05,00,00,190.5,,,,,,,,,,,,,,
2021,03,01,05,01,00,316.8,,,,,,,,,,,,,,
2021,03,01,05,02,00,297.5,,,,,,,,,,,,,,
2021,03,01,05,03,00,306.9,,,,,,,,,,,,,,
2021,03,01,05,04,00,470.5,,,,,,,,,,,,,,
2021,03,01,05,05,00,529.4,,,,,,,,,,,,,,
2021,03,01,05,06,00,1052.2,,,,,,,,,,,,,,
2021,03,01,05,07,00,901.1,,,,,,,,,,,,,,
2021,03,01,05,08,00,579.2,,,,,,,,,,,,,,
2021,03,01,05,09,00,375.5,,,,,,,,,,,,,,
2021,03,01,05,10,00,363.6,,,,,,,,,,,,,,
2021,03,01,05,11,00,400.8,,,,,,,,,,,,,,
2021,03,01,05,12,00,430.5,,,,,,,,,,,,,,
2021,03,01,05,13,00,389.5,,,,,,,,,,,,,,
2021,03,01,05,14,00,375.1,,,,,,,,,,,,,,
2021,03,01,05,15,00,323.8,,,,,,,,,,,,,,
2021,03,01,05,16,00,407.8,,,,,,,,,,,,,,
2021,03,01,05,17,00,370.5,,,,,,,,,,,,,,
2021,03,01,05,18,00,228.7,,,,,,,,,,,,,,
2021,03,01,05,19,00,160.8,,,,,,,,,,,,,,
2021,03,01,05,20,00,142.4,,,,,,,,,,,,,,
2021,03,01,05,21,00,199.6,,,,,,,,,,,,,,
2021,03,01,05,22,00,241.3,,,,,,,,,,,,,,
2021,03,01,05,23,00,226.0,,,,,,,,,,,,,,
2021,03,01,05,24,00,283.9,,,,,,,,,,,,,,
2021,03,01,05,25,00,225.0,,,,,,,,,,,,,,
2021,03,01,05,26,00,208.9,,,,,,,,,,,,,,
2021,03,01,05,27,00,209.1,,,,,,,,,,,,,,
2021,03,01,05,28,00,178.2,,,,,,,,,,,,,,
2021,03,01,05,29,00,161.3,,,,,,,,,,,,,,
2021,03,01,05,30,00,184.9,,,,,,,,,,,,,,
2021,03,01,05,31,00,193.8,,,,,,,,,,,,,,
2021,03,01,05,32,00,156.0,,,,,,,,,,,,,,
2021,03,01,05,33,00,144.9,,,,,,,,,,,,,,
2021,03,01,05,34,00,152.2,,,,,,,,,,,,,,
2021,03,01,05,35,00,176.2,,,,,,,,,,,,,,
2021,03,01,05,36,00,167.1,,,,,,,,,,,,,,
2021,03,01,05,37,00,159.5,,,,,,,,,,,,,,
2021,03,01,05,38,00,171.6,,,,,,,,,,,,,,
2021,03,01,05,39,00,151.1,,,,,,,,,,,,,,
2021,03,01,05,40,00,182.0,,,,,,,,,,,,,,
2021,03,01,05,41,00,180.1,,,,,,,,,,,,,,
2021,03,01,05,42,00,173.8,,,,,,,,,,,,,,
2021,03,01,05,43,00,200.3,,,,,,,,,,,,,,
2021,03,01,05,44,00,195.0,,,,,,,,,,,,,,
2021,03,01,05,45,00,168.4,,,,,,,,,,,,,,
2021,03,01,05,46,00,231.7,,,,,,,,,,,,,,
2021,03,01,05,47,00,162.1,,,,,,,,,,,,,,
2021,03,01,05,48,00,121.4,,,,,,,,,,,,,,
2021,03,01,05,49,00,141.8,,,,,,,,,,,,,,
2021,03,01,05,50,00,152.3,,,,,,,,,,,,,,
2021,03,01,05,51,00,184.9,,,,,,,,,,,,,,
2021,03,01,05,52,00,166.9,,,,,,,,,,,,,,
2021,03,01,05,53,00,162.6,,,,,,,,,,,,,,
2021,03,01,05,54,00,177.6,,,,,,,,,,,,,,
2021,03,01,05,55,00,172.9,,,,,,,,,,,,,,
2021,03,01,05,56,00,137.4,,,,,,,,,,,,,,
2021,03,01,05,57,00,153.4,,,,,,,,,,,,,,
2021,03,01,05,58,00,159.1,,,,,,,,,,,,,,
2021,03,01,05,59,00,162.7,,,,,,,,,,,,,,
2021,03,01,06,00,00,131.8,,,,,,,,,,,,,,
2021,03,01,06,01,00,127.7,,,,,,,,,,,,,,
2021,03,01,06,02,00,175.1,,,,,,,,,,,,,,
2021,03,01,06,03,00,154.2,,,,,,,,,,,,,,
2021,03,01,06,04,00,192.1,,,,,,,,,,,,,,
2021,03,01,06,05,00,152.7,,,,,,,,,,,,,,
2021,03,01,06,06,00,168.5,,,,,,,,,,,,,,
2021,03,01,06,07,00,164.5,,,,,,,,,,,,,,
2021,03,01,06,08,00,139.2,,,,,,,,,,,,,,
2021,03,01,06,09,00,154.4,,,,,,,,,,,,,,
2021,03,01,06,10,00,149.2,,,,,,,,,,,,,,
2021,03,01,06,11,00,151.8,,,,,,,,,,,,,,
2021,03,01,06,12,00,199.6,,,,,,,,,,,,,,
2021,03,01,06,13,00,268.9,,,,,,,,,,,,,,
2021,03,01,06,14,00,161.1,,,,,,,,,,,,,,
2021,03,01,06,15,00,147.4,,,,,,,,,,,,,,
2021,03,01,06,16,00,148.2,,,,,,,,,,,,,,
2021,03,01,06,17,00,137.6,,,,,,,,,,,,,,
2021,03,01,06,18,00,153.3,,,,,,,,,,,,,,
2021,03,01,06,19,00,133.4,,,,,,,,,,,,,,
2021,03,01,06,20,00,122.3,,,,,,,,,,,,,,
2021,03,01,06,21,00,139.2,,,,,,,,,,,,,,
2021,03,01,06,22,00,138.3,,,,,,,,,,,,,,
2021,03,01,06,23,00,121.7,,,,,,,,,,,,,,
2021,03,01,06,24,00,131.6,,,,,,,,,,,,,,
2021,03,01,06,25,00,151.6,,,,,,,,,,,,,,
2021,03,01,06,26,00,158.5,,,,,,,,,,,,,,
2021,03,01,06,27,00,142.1,,,,,,,,,,,,,,
2021,03,01,06,28,00,148.0,,,,,,,,,,,,,,
2021,03,01,06,29,00,148.9,,,,,,,,,,,,,,
2021,03,01,06,30,00,134.5,,,,,,,,,,,,,,
2021,03,01,06,31,00,113.6,,,,,,,,,,,,,,
2021,03,01,06,32,00,123.0,,,,,,,,,,,,,,
2021,03,01,06,33,00,167.3,,,,,,,,,,,,,,
2021,03,01,06,34,00,172.4,,,,,,,,,,,,,,
2021,03,01,06,35,00,149.3,,,,,,,,,,,,,,
2021,03,01,06,36,00,146.9,,,,,,,,,,,,,,
2021,03,01,06,37,00,119.4,,,,,,,,,,,,,,
2021,03,01,06,38,00,162.7,,,,,,,,,,,,,,
2021,03,01,06,39,00,160.2,,,,,,,,,,,,,,
2021,03,01,06,40,00,124.9,,,,,,,,,,,,,,
2021,03,01,06,41,00,121.9,,,,,,,,,,,,,,
2021,03,01,06,42,00,127.0,,,,,,,,,,,,,,
2021,03,01,06,43,00,155.7,,,,,,,,,,,,,,
2021,03,01,06,44,00,123.9,,,,,,,,,,,,,,
2021,03,01,06,45,00,138.4,,,,,,,,,,,,,,
2021,03,01,06,46,00,146.7,,,,,,,,,,,,,,
2021,03,01,06,47,00,112.9,,,,,,,,,,,,,,
2021,03,01,06,48,00,123.5,,,,,,,,,,,,,,
2021,03,01,06,49,00,156.2,,,,,,,,,,,,,,
2021,03,01,06,50,00,153.5,,,,,,,,,,,,,,
2021,03,01,06,51,00,135.7,,,,,,,,,,,,,,
2021,03,01,06,52,00,161.1,,,,,,,,,,,,,,
2021,03,01,06,53,00,151.5,,,,,,,,,,,,,,
2021,03,01,06,54,00,112.7,,,,,,,,,,,,,,
2021,03,01,06,55,00,109.0,,,,,,,,,,,,,,
2021,03,01,06,56,00,109.7,,,,,,,,,,,,,,
2021,03,01,06,57,00,139.2,,,,,,,,,,,,,,
2021,03,01,06,58,00,142.8,,,,,,,,,,,,,,
2021,03,01,06,59,00,141.4,,,,,,,,,,,,,,
2021,03,01,07,00,00,186.1,,,,,,,,,,,,,,
2021,03,01,07,01,00,172.0,,,,,,,,,,,,,,
2021,03,01,07,02,00,132.4,,,,,,,,,,,,,,
2021,03,01,07,03,00,126.2,,,,,,,,,,,,,,
2021,03,01,07,04,00,132.2,,,,,,,,,,,,,,
2021,03,01,07,05,00,155.6,,,,,,,,,,,,,,
2021,03,01,07,06,00,137.8,,,,,,,,,,,,,,
2021,03,01,07,07,00,128.5,,,,,,,,,,,,,,
2021,03,01,07,08,00,117.8,,,,,,,,,,,,,,
2021,03,01,07,09,00,120.0,,,,,,,,,,,,,,
2021,03,01,07,10,00,141.4,,,,,,,,,,,,,,
2021,03,01,07,11,00,111.6,,,,,,,,,,,,,,
2021,03,01,07,12,00,122.6,,,,,,,,,,,,,,
2021,03,01,07,13,00,160.6,,,,,,,,,,,,,,
2021,03,01,07,14,00,145.2,,,,,,,,,,,,,,
2021,03,01,07,15,00,111.0,,,,,,,,,,,,,,
2021,03,01,07,16,00,115.9,,,,,,,,,,,,,,
2021,03,01,07,17,00,111.4,,,,,,,,,,,,,,
2021,03,01,07,18,00,109.6,,,,,,,,,,,,,,
2021,03,01,07,19,00,95.3,,,,,,,,,,,,,,
2021,03,01,07,20,00,93.4,,,,,,,,,,,,,,
2021,03,01,07,21,00,106.6,,,,,,,,,,,,,,
2021,03,01,07,22,00,101.8,,,,,,,,,,,,,,
2021,03,01,07,23,00,114.7,,,,,,,,,,,,,,
2021,03,01,07,24,00,110.1,,,,,,,,,,,,,,
2021,03,01,07,25,00,115.0,,,,,,,,,,,,,,
2021,03,01,07,26,00,108.8,,,,,,,,,,,,,,
2021,03,01,07,27,00,111.7,,,,,,,,,,,,,,
2021,03,01,07,28,00,108.0,,,,,,,,,,,,,,
2021,03,01,07,29,00,99.7,,,,,,,,,,,,,,
2021,03,01,07,30,00,126.9,,,,,,,,,,,,,,
2021,03,01,07,31,00,144.7,,,,,,,,,,,,,,
2021,03,01,07,32,00,155.3,,,,,,,,,,,,,,
2021,03,01,07,33,00,138.3,,,,,,,,,,,,,,
2021,03,01,07,34,00,123.4,,,,,,,,,,,,,,
2021,03,01,07,35,00,125.2,,,,,,,,,,,,,,
2021,03,01,07,36,00,119.0,,,,,,,,,,,,,,
2021,03,01,07,37,00,127.4,,,,,,,,,,,,,,
2021,03,01,07,38,00,117.3,,,,,,,,,,,,,,
2021,03,01,07,39,00,98.7,,,,,,,,,,,,,,
2021,03,01,07,40,00,114.3,,,,,,,,,,,,,,
2021,03,01,07,41,00,119.4,,,,,,,,,,,,,,
2021,03,01,07,42,00,127.0,,,,,,,,,,,,,,
2021,03,01,07,43,00,125.4,,,,,,,,,,,,,,
2021,03,01,07,44,00,111.4,,,,,,,,,,,,,,
2021,03,01,07,45,00,106.9,,,,,,,,,,,,,,
2021,03,01,07,46,00,112.4,,,,,,,,,,,,,,
2021,03,01,07,47,00,116.7,,,,,,,,,,,,,,
2021,03,01,07,48,00,124.3,,,,,,,,,,,,,,
2021,03,01,07,49,00,132.7,,,,,,,,,,,,,,
2021,03,01,07,50,00,144.1,,,,,,,,,,,,,,
2021,03,01,07,51,00,157.8,,,,,,,,,,,,,,
2021,03,01,07,52,00,151.5,,,,,,,,,,,,,,
2021,03,01,07,53,00,101.0,,,,,,,,,,,,,,
2021,03,01,07,54,00,102.8,,,,,,,,,,,,,,
2021,03,01,07,55,00,123.6,,,,,,,,,,,,,,
2021,03,01,07,56,00,125.1,,,,,,,,,,,,,,
2021,03,01,07,57,00,134.1,,,,,,,,,,,,,,
2021,03,01,07,58,00,135.8,,,,,,,,,,,,,,
2021,03,01,07,59,00,124.4,,,,,,,,,,,,,,
2021,03,01,08,00,00,127.7,,,,,,,,,,,,,,
2021,03,01,08,01,00,138.6,,,,,,,,,,,,,,
2021,03,01,08,02,00,98.3,,,,,,,,,,,,,,
2021,03,01,08,03,00,101.5,,,,,,,,,,,,,,
2021,03,01,08,04,00,114.8,,,,,,,,,,,,,,
2021,03,01,08,05,00,,,,,,,,,,,,,,,
2021,03,01,08,06,00,,,,,,,,,,,,,,,
2021,03,01,08,07,00,139.1,,,,,,,,,,,,,,
2021,03,01,08,08,00,153.1,,,,,,,,,,,,,,
2021,03,01,08,09,00,120.1,,,,,,,,,,,,,,
2021,03,01,08,10,00,127.6,,,,,,,,,,,,,,
2021,03,01,08,11,00,117.4,,,,,,,,,,,,,,
2021,03,01,08,12,00,128.8,,,,,,,,,,,,,,
2021,03,01,08,13,00,156.6,,,,,,,,,,,,,,
2021,03,01,08,14,00,225.9,,,,,,,,,,,,,,
2021,03,01,08,15,00,170.3,,,,,,,,,,,,,,
2021,03,01,08,16,00,172.6,,,,,,,,,,,,,,
2021,03,01,08,17,00,131.0,,,,,,,,,,,,,,
2021,03,01,08,18,00,111.4,,,,,,,,,,,,,,
2021,03,01,08,19,00,108.0,,,,,,,,,,,,,,
2021,03,01,08,20,00,130.6,,,,,,,,,,,,,,
2021,03,01,08,21,00,190.6,,,,,,,,,,,,,,
2021,03,01,08,22,00,222.7,,,,,,,,,,,,,,
2021,03,01,08,23,00,146.3,,,,,,,,,,,,,,
2021,03,01,08,24,00,124.1,,,,,,,,,,,,,,
2021,03,01,08,25,00,115.4,,,,,,,,,,,,,,
2021,03,01,08,26,00,110.1,,,,,,,,,,,,,,
2021,03,01,08,27,00,112.6,,,,,,,,,,,,,,
2021,03,01,08,28,00,116.8,,,,,,,,,,,,,,
2021,03,01,08,29,00,120.2,,,,,,,,,,,,,,
2021,03,01,08,30,00,123.1,,,,,,,,,,,,,,
2021,03,01,08,31,00,137.0,,,,,,,,,,,,,,
2021,03,01,08,32,00,162.2,,,,,,,,,,,,,,
2021,03,01,08,33,00,142.4,,,,,,,,,,,,,,
2021,03,01,08,34,00,140.7,,,,,,,,,,,,,,
2021,03,01,08,35,00,136.0,,,,,,,,,,,,,,
2021,03,01,08,36,00,142.0,,,,,,,,,,,,,,
2021,03,01,08,37,00,123.9,,,,,,,,,,,,,,
2021,03,01,08,38,00,147.0,,,,,,,,,,,,,,
2021,03,01,08,39,00,165.5,,,,,,,,,,,,,,
2021,03,01,08,40,00,151.0,,,,,,,,,,,,,,
2021,03,01,08,41,00,180.6,,,,,,,,,,,,,,
2021,03,01,08,42,00,194.4,,,,,,,,,,,,,,
2021,03,01,08,43,00,151.2,,,,,,,,,,,,,,
2021,03,01,08,44,00,146.9,,,,,,,,,,,,,,
2021,03,01,08,45,00,137.0,,,,,,,,,,,,,,
2021,03,01,08,46,00,131.1,,,,,,,,,,,,,,
2021,03,01,08,47,00,139.6,,,,,,,,,,,,,,
2021,03,01,08,48,00,133.5,,,,,,,,,,,,,,
2021,03,01,08,49,00,132.5,,,,,,,,,,,,,,
2021,03,01,08,50,00,147.1,,,,,,,,,,,,,,
2021,03,01,08,51,00,205.9,,,,,,,,,,,,,,
2021,03,01,08,52,00,161.0,,,,,,,,,,,,,,
2021,03,01,08,53,00,146.4,,,,,,,,,,,,,,
2021,03,01,08,54,00,144.6,,,,,,,,,,,,,,
2021,03,01,08,55,00,143.7,,,,,,,,,,,,,,
2021,03,01,08,56,00,200.0,,,,,,,,,,,,,,
2021,03,01,08,57,00,227.4,,,,,,,,,,,,,,
2021,03,01,08,58,00,186.2,,,,,,,,,,,,,,
2021,03,01,08,59,00,144.8,,,,,,,,,,,,,,
2021,03,01,09,00,00,152.3,,,,,,,,,,,,,,
2021,03,01,09,01,00,178.5,,,,,,,,,,,,,,
2021,03,01,09,02,00,225.0,,,,,,,,,,,,,,
2021,03,01,09,03,00,204.1,,,,,,,,,,,,,,
2021,03,01,09,04,00,194.4,,,,,,,,,,,,,,
2021,03,01,09,05,00,202.6,,,,,,,,,,,,,,
2021,03,01,09,06,00,149.9,,,,,,,,,,,,,,
2021,03,01,09,07,00,126.2,,,,,,,,,,,,,,
2021,03,01,09,08,00,126.8,,,,,,,,,,,,,,
2021,03,01,09,09,00,151.3,,,,,,,,,,,,,,
2021,03,01,09,10,00,214.1,,,,,,,,,,,,,,
2021,03,01,09,11,00,218.2,,,,,,,,,,,,,,
2021,03,01,09,12,00,195.5,,,,,,,,,,,,,,
2021,03,01,09,13,00,173.0,,,,,,,,,,,,,,
2021,03,01,09,14,00,153.6,,,,,,,,,,,,,,
2021,03,01,09,15,00,169.9,,,,,,,,,,,,,,
2021,03,01,09,16,00,203.9,,,,,,,,,,,,,,
2021,03,01,09,17,00,220.9,,,,,,,,,,,,,,
2021,03,01,09,18,00,266.0,,,,,,,,,,,,,,
2021,03,01,09,19,00,273.8,,,,,,,,,,,,,,
2021,03,01,09,20,00,255.2,,,,,,,,,,,,,,
2021,03,01,09,21,00,244.9,,,,,,,,,,,,,,
2021,03,01,09,22,00,257.5,,,,,,,,,,,,,,
2021,03,01,09,23,00,246.9,,,,,,,,,,,,,,
2021,03,01,09,24,00,259.0,,,,,,,,,,,,,,
2021,03,01,09,25,00,266.2,,,,,,,,,,,,,,
2021,03,01,09,26,00,254.0,,,,,,,,,,,,,,
2021,03,01,09,27,00,256.4,,,,,,,,,,,,,,
2021,03,01,09,28,00,235.3,,,,,,,,,,,,,,
2021,03,01,09,29,00,220.4,,,,,,,,,,,,,,
2021,03,01,09,30,00,212.1,,,,,,,,,,,,,,
2021,03,01,09,31,00,158.2,,,,,,,,,,,,,,
2021,03,01,09,32,00,156.2,,,,,,,,,,,,,,
2021,03,01,09,33,00,143.2,,,,,,,,,,,,,,
2021,03,01,09,34,00,147.2,,,,,,,,,,,,,,
2021,03,01,09,35,00,147.7,,,,,,,,,,,,,,
2021,03,01,09,36,00,153.2,,,,,,,,,,,,,,
2021,03,01,09,37,00,172.6,,,,,,,,,,,,,,
2021,03,01,09,38,00,176.7,,,,,,,,,,,,,,
2021,03,01,09,39,00,215.4,,,,,,,,,,,,,,
2021,03,01,09,40,00,192.7,,,,,,,,,,,,,,
2021,03,01,09,41,00,202.5,,,,,,,,,,,,,,
2021,03,01,09,42,00,205.7,,,,,,,,,,,,,,
2021,03,01,09,43,00,199.9,,,,,,,,,,,,,,
2021,03,01,09,44,00,183.6,,,,,,,,,,,,,,